SL-14 R/B, 18794

Orbit data source: Space-Track

SL-14 R/B, 18794 is space debris in LEO originally from a launch on Fri, 15 Jan 1988 UTC launched from the Plesetsk Missile And Space Complex (PKMTR). Debris objects in space refer to the collection of defunct objects orbiting the Earth. Examples of debris include non-operational satellites, rocket bodies, and fragments generated from explosions, collisions, or faulty payload assembly.

Loading next visibility...
Identifier
18794, 1988-002G
Orbit
LEO
Country
Flag of CISCIS
Related business
Manufacturer
Yuzhnoe
Mission
Spacecraft
Bus & Motor
S5M, Unknown motor
Mass
1,600 kg wet, 1,600 kg dry
Launch date (UTC)
1988-01-15 (38 years ago)
Launch vehicle
Unknown
Launch site
Plesetsk Missile And Space Complex (PKMTR)
Object type
Payload
Rocket body
Debris
Shape & HBR
Cyl, 1.4 m
Radar Cross Section
7.351 m², Large (>1 m²)

Expand to show TLE details & history
Last TLE update: 1 day ago

TLE from 1 day ago
0 SL-14 R/B
1 18794U 88002G   25349.93118361  .00000013  00000-0  16701-4 0  9995
2 18794  82.6000 137.8237 0037939 164.7433  11.0351 12.55584300737749
Epoch: 2025-12-15T22:20Z
TLE epoch observation values (Epoch: 2025-12-15T22:20:54.263Z)
Latitude
4.01842°
Longitude
-102.74525°
Altitude
1,414.395 km
Speed
7.167 km/s
True Right ascension
21h 09m 12s
True Declination
3° 59' 47"
Sunlit
Object was in daylight at epoch
Visualization orbit readout
Latitude
Unknown
Longitude
Unknown
Altitude
Unknown
Speed
Unknown
Apparent Right ascension
Unknown
Apparent Declination
Unknown
Sunlit
N/A
Visualization observer readout
Local Sidereal Time
00:07:31
Azimuth
Unknown
Elevation
Unknown
Doppler factor
Unknown
Orbital elements
Apogee altitude
1,468.209 km
Perigee altitude
1,408.898 km
Semi-major axis
7,816.69 km
Eccentricity
0.00379
Inclination
82.6°
RAAN
137.8237°
Arg. of periapsis
164.7433°
True anomaly
11.1187°
Mean anomaly
11.0351°
Eccentric anomaly
11.07686°
Mean motion
3.14057 °/min
Orbital period
114.63 mins
BSTAR
0.000016701
Loading maneuver chart data...
Computing Atmospheric mass density...
Loading historical data...
Loading historical data...
Loading historical data...
Loading historical data...
Loading historical data...
Loading historical data...
Loading historical data...

Documentation

Showing up to 5 results
|